Location: Unspecified
(0.0000°N, 0.0000°E)
Time: 06:17:29
(UTC+02:00)

Delta 168 - Visible Passes

Search period start: 23 September 2014 00:00
Search period end: 03 October 2014 00:00
Orbit: 395 x 2116 km, 25.3° (Epoch: 21 September)

Date Brightness Start Highest point End Pass type
(mag) Time Alt. Az. Time Alt. Az. Time Alt. Az.
23 Sep 7.1 03:58:41 13° NE 03:58:41 13° NE 03:59:54 10° NE visible
23 Sep 5.7 05:49:16 26° NNW 05:53:37 37° NNE 06:00:20 10° E visible
23 Sep 6.0 21:34:31 10° W 21:42:47 39° NNW 21:49:51 21° NNE visible
23 Sep 7.0 23:35:50 10° WNW 23:40:24 20° NW 23:40:24 20° NW visible
24 Sep 7.0 03:56:10 15° NE 03:56:10 15° NE 03:57:44 10° ENE visible
24 Sep 5.5 05:46:44 32° NNW 05:50:47 44° NNE 05:57:56 10° E visible
24 Sep 6.2 21:32:07 10° WNW 21:39:54 33° NNW 21:47:03 18° NNE visible
24 Sep 7.0 23:33:34 10° NW 23:37:37 18° NNW 23:37:37 18° NNW visible
25 Sep 7.0 03:53:38 16° ENE 03:53:38 16° ENE 03:55:29 10° ENE visible
25 Sep 5.3 05:44:13 38° NNW 05:47:52 53° NNE 05:55:25 10° E visible
25 Sep 6.3 21:29:49 10° WNW 21:37:04 29° NNW 21:44:11 16° NNE visible
25 Sep 7.1 23:31:18 10° NW 23:34:44 17° NNW 23:34:44 17° NNW visible
26 Sep 7.0 03:51:05 17° ENE 03:51:05 17° ENE 03:53:08 10° ENE visible
26 Sep 5.2 05:41:40 46° NNW 05:44:53 62° NNE 05:52:48 10° ESE visible
26 Sep 6.4 21:27:36 10° WNW 21:34:17 25° NNW 21:41:13 14° NNE visible
26 Sep 7.1 23:28:59 10° NW 23:31:46 15° NNW 23:31:46 15° NNW visible
27 Sep 7.0 03:48:31 18° ENE 03:48:31 18° ENE 03:50:41 10° E visible
27 Sep 5.0 05:39:05 54° NW 05:41:49 72° NNE 05:50:05 10° ESE visible
27 Sep 6.5 21:25:28 10° NW 21:31:32 21° N 21:38:11 12° NNE visible
27 Sep 7.1 23:26:36 10° NW 23:28:43 14° NNW 23:28:43 14° NNW visible
28 Sep 7.0 03:45:54 18° E 03:45:54 18° E 03:48:08 10° E visible
28 Sep 5.0 05:36:28 63° NW 05:38:40 83° NNE 05:47:17 10° ESE visible
28 Sep 5.3 07:28:32 10° W 07:37:33 37° SSW 07:43:46 10° SE visible
28 Sep 6.6 21:23:25 10° NW 21:28:49 18° N 21:35:05 11° NNE visible
28 Sep 7.1 23:24:08 10° NNW 23:25:37 13° NNW 23:25:37 13° NNW visible
29 Sep 7.0 03:43:13 19° E 03:43:13 19° E 03:45:29 10° E visible
29 Sep 5.0 05:33:47 70° WNW 05:35:27 86° SSW 05:44:24 10° ESE visible
29 Sep 5.5 07:25:33 10° W 07:34:25 33° SSW 07:40:44 10° SSE visible
29 Sep 6.6 21:21:29 10° NW 21:26:08 16° N 21:31:43 10° NNE visible
29 Sep 7.1 23:21:32 10° NNW 23:22:28 12° NNW 23:22:28 12° NNW visible
30 Sep 7.0 03:40:29 19° E 03:40:29 19° E 03:42:43 10° E visible
30 Sep 5.1 05:31:02 71° WSW 05:32:12 77° SSW 05:41:27 10° ESE visible
30 Sep 5.8 07:22:38 10° W 07:31:18 29° SSW 07:37:39 10° SSE visible
30 Sep 6.7 21:19:38 10° NNW 21:23:27 14° N 21:27:54 10° NNE visible
30 Sep 7.1 23:18:49 10° NNW 23:19:16 11° NNW 23:19:16 11° NNW visible
01 Oct 7.0 03:37:39 19° E 03:37:39 19° E 03:39:51 10° ESE visible
01 Oct 5.2 05:28:12 67° SW 05:28:53 68° SSW 05:38:24 10° SE visible
01 Oct 6.0 07:19:47 10° W 07:28:12 26° SSW 07:34:32 10° SSE visible
01 Oct 6.7 21:17:56 10° NNW 21:20:48 12° N 21:23:59 10° NNE visible
01 Oct 7.1 23:15:58 10° NNW 23:16:02 10° NNW 23:16:02 10° NNW visible
02 Oct 7.1 03:34:45 18° ESE 03:34:45 18° ESE 03:36:54 10° ESE visible
02 Oct 5.3 05:25:18 60° SW 05:25:33 60° SSW 05:35:18 10° SE visible
02 Oct 6.1 07:16:59 10° WSW 07:25:06 23° SSW 07:31:23 10° SSE visible
02 Oct 6.7 21:16:33 10° N 21:18:08 11° N 21:19:49 10° NNE visible
